Theta_e
323 325 326 327 326 325 325 324 326 326 326 326 324 324 326 327 327 326 327 323 317 321 325 321 320 320 320 320 318 318 318 318 319 319 319 320 320 320 321 322 323 324 325 325 325 324 322 320 320 319 319 318 318 318 319 321 322 322 320 318 317 317 319 322 326 328 329 328 328 328 327 326 323 321 320 320 321 322 322 323 322 322 322 320 319 318
322 326 326 325 325 325 325 325 326 326 324 325 325 325 325 326 327 326 327 324 317 321 326 323 322 321 320 320 318 317 318 318 318 319 319 319 320 320 321 322 323 324 324 325 325 325 323 320 319 319 318 318 318 318 319 320 321 322 321 319 317 317 318 319 322 325 328 329 329 328 328 327 325 323 322 322 322 322 323 324 324 324 323 323 321 320
321 323 324 324 324 324 325 326 326 325 324 326 326 326 326 325 326 327 328 324 318 321 327 324 322 322 320 320 318 316 317 318 320 320 320 320 320 320 320 321 322 323 324 325 325 325 324 321 318 318 318 318 318 318 318 319 319 321 321 319 318 318 317 317 317 320 323 326 328 329 329 329 328 327 326 325 324 323 322 322 323 324 324 324 323 323
319 321 323 323 324 325 326 326 325 325 325 326 326 326 327 326 326 329 330 324 318 320 323 322 321 320 319 319 318 317 316 317 320 320 320 320 320 321 321 321 322 322 323 324 325 324 324 324 320 318 318 317 318 318 318 318 319 320 319 319 318 318 317 317 316 316 318 321 325 327 328 329 330 330 329 329 328 327 325 323 322 323 323 324 324 324
319 320 322 322 324 326 326 325 326 327 326 326 326 326 327 326 327 329 328 322 320 320 318 318 323 323 323 324 322 320 318 317 318 318 318 318 320 321 321 321 322 322 322 324 325 325 324 325 323 321 319 317 318 318 318 318 318 318 318 318 318 318 317 317 316 316 317 319 322 325 328 329 329 329 330 330 330 330 329 327 324 322 322 323 323 323
319 318 320 322 324 325 325 325 325 326 327 326 326 325 325 327 327 327 324 321 327 330 320 319 327 330 330 329 325 323 321 319 317 315 316 318 320 320 320 322 323 323 324 324 325 326 325 325 325 324 322 320 319 319 319 319 319 319 318 318 318 318 318 317 317 317 318 319 320 322 324 326 327 328 328 329 329 330 330 330 328 326 324 322 322 323
320 318 319 323 324 324 324 325 324 325 327 327 326 325 325 327 327 326 324 324 330 332 322 319 327 331 330 328 328 328 327 324 321 316 315 317 319 319 320 322 322 323 324 325 325 325 325 325 325 325 325 324 323 322 321 320 319 319 319 319 319 318 318 317 317 317 318 318 319 319 320 320 322 323 324 325 327 328 329 329 330 329 327 325 324 323
320 319 320 322 323 324 324 325 324 323 326 327 327 327 326 326 326 326 326 327 327 326 322 320 323 327 326 326 328 330 329 326 324 322 318 317 319 320 321 322 322 323 323 323 324 324 325 325 325 325 325 325 325 324 324 323 321 320 320 320 320 319 318 318 318 318 318 317 317 318 318 318 318 318 319 321 323 324 326 327 328 329 329 328 327 326
319 319 319 320 323 324 324 325 323 322 325 326 326 328 327 325 326 326 326 326 324 324 325 322 321 326 328 327 325 324 325 324 323 324 322 319 320 321 321 322 322 323 323 322 323 323 323 323 323 323 323 323 323 323 323 324 324 323 322 322 321 321 320 319 318 318 317 317 317 318 318 318 318 317 318 319 320 320 322 323 324 326 327 328 328 328
318 319 318 318 321 322 323 324 323 323 325 322 322 325 325 325 325 325 326 325 322 324 328 325 323 326 330 329 326 322 324 325 322 322 321 318 320 321 321 322 322 322 322 322 323 323 323 323 323 322 322 322 322 321 321 322 322 323 323 323 323 323 322 320 319 318 318 317 318 318 318 318 317 318 320 320 320 320 320 320 320 321 322 323 325 326
319 319 318 319 320 320 322 323 322 323 322 320 323 325 324 324 324 323 324 324 324 326 328 326 324 326 329 329 326 324 325 327 324 322 321 319 318 320 321 322 322 322 322 322 322 323 323 323 323 323 322 321 321 320 321 321 321 321 322 322 323 323 324 321 319 319 319 318 318 317 317 317 317 319 320 321 320 320 319 318 317 317 317 318 319 320
319 320 320 320 320 320 323 323 321 320 320 322 327 327 325 324 323 323 323 324 327 328 328 326 324 324 328 328 327 327 327 326 325 325 326 322 318 320 321 322 322 322 322 322 322 322 322 323 323 322 321 321 321 320 320 320 321 321 321 321 321 322 323 321 319 319 319 319 319 317 317 317 317 319 320 319 319 319 319 318 317 318 317 316 315 316
319 321 322 321 321 322 324 323 322 321 322 325 327 326 326 326 326 327 326 325 327 328 327 327 325 324 325 325 327 329 328 325 321 319 322 321 319 320 321 321 321 322 322 321 321 320 321 321 321 321 320 321 321 321 320 320 320 321 321 321 321 321 322 321 320 319 319 320 319 318 317 317 318 319 320 319 318 318 318 318 318 318 317 316 315 315
320 320 321 322 322 322 322 323 323 323 323 324 325 325 326 327 327 328 328 327 327 326 325 325 324 325 326 324 325 324 323 323 319 316 318 319 319 319 320 320 320 321 321 321 321 320 320 321 320 320 321 321 321 321 321 320 320 320 320 320 321 321 321 321 320 319 319 319 319 319 318 318 319 319 319 319 318 318 317 317 317 317 316 316 315 315
322 321 321 321 322 322 322 322 323 324 323 323 324 324 324 326 327 328 328 329 328 326 324 322 323 327 327 325 323 317 315 318 318 318 319 319 319 320 320 320 320 320 321 321 321 321 321 321 321 321 321 321 321 320 321 321 320 320 320 320 321 321 321 320 320 320 319 319 318 319 319 318 319 320 320 319 318 318 318 317 317 316 316 315 315 315
321 322 322 321 321 321 322 321 322 325 325 323 324 324 324 325 327 325 325 325 326 326 325 323 324 327 325 321 318 315 315 317 316 317 318 318 320 320 319 319 320 321 321 320 320 319 319 319 319 319 320 321 320 319 320 320 320 321 321 321 321 321 321 320 320 320 320 319 318 318 318 318 319 320 320 320 319 318 318 318 317 316 315 316 316 316
320 322 324 322 321 321 321 321 321 322 324 323 324 325 323 325 327 326 323 320 322 326 326 325 326 325 323 321 319 318 320 320 320 318 315 317 319 318 316 318 319 320 319 319 318 318 318 318 317 317 318 320 320 319 320 320 320 321 321 321 321 321 320 320 319 320 319 319 318 318 318 319 319 319 319 319 319 318 319 319 318 317 317 317 316 316
321 323 323 322 322 322 320 321 320 320 321 323 324 323 322 324 325 325 324 322 321 323 326 325 324 323 323 323 323 321 321 320 323 322 316 315 317 315 315 317 318 318 318 318 318 318 318 318 318 318 319 320 320 319 320 320 320 320 319 320 321 321 321 320 319 319 318 318 318 318 318 318 318 319 319 319 319 319 320 320 319 319 318 317 317 317
321 322 322 321 323 322 320 320 322 321 319 319 321 321 322 325 325 323 324 325 325 325 326 326 323 322 322 322 321 322 322 321 320 321 319 317 316 315 315 317 317 317 318 319 318 319 319 319 319 319 320 320 320 319 319 320 319 319 319 319 319 320 320 319 319 318 318 317 317 317 318 318 318 318 319 319 319 320 321 320 320 320 319 318 319 319
320 320 321 321 321 322 321 321 322 323 320 317 319 321 322 324 324 324 324 326 328 326 326 325 324 324 322 319 319 320 323 325 322 321 321 318 316 316 316 317 316 316 317 318 319 319 319 319 319 319 320 320 320 319 319 319 319 318 318 318 319 320 320 319 319 318 318 317 317 317 317 318 318 318 319 319 320 321 321 320 320 320 320 320 321 321
320 319 320 320 319 321 322 321 322 323 322 320 321 322 323 322 323 324 324 325 326 325 325 325 324 325 323 319 319 318 319 325 326 324 321 317 315 317 317 316 316 317 317 317 318 319 318 319 319 319 320 320 319 318 318 318 318 318 317 318 318 318 319 319 319 319 318 318 317 317 317 317 318 318 319 319 320 321 321 320 321 320 321 321 321 322
320 319 319 321 321 321 322 321 320 321 322 321 321 322 323 322 323 325 325 324 322 323 325 325 324 324 323 322 321 319 318 319 320 320 319 316 315 317 317 316 316 317 318 318 318 318 318 318 319 319 319 319 318 318 318 318 318 317 317 317 317 317 318 318 319 319 318 318 318 317 317 317 318 318 319 320 321 321 321 321 321 321 322 322 322 322
320 321 319 320 321 321 322 319 316 317 321 321 321 321 322 323 323 324 325 324 322 322 324 324 324 323 321 325 324 319 316 315 314 314 314 314 315 317 318 316 315 316 318 318 318 318 319 319 319 319 318 318 318 317 318 317 317 316 316 316 316 317 317 317 318 318 317 317 317 317 317 317 317 318 319 320 320 321 321 321 321 322 322 323 323 323
318 320 319 319 320 320 320 319 316 315 318 321 322 322 322 323 323 322 324 324 323 324 323 323 325 323 321 325 322 315 313 313 313 313 313 313 315 317 318 317 316 316 316 318 318 317 318 318 318 318 318 317 317 317 316 315 315 315 315 316 316 317 317 316 316 316 316 316 316 316 316 316 316 316 317 318 318 319 320 320 321 323 323 323 323 323
317 318 318 318 319 318 318 319 318 316 317 319 321 321 321 322 322 322 323 324 323 324 324 324 325 323 322 325 320 315 318 316 312 312 313 313 314 315 318 318 318 316 315 317 318 317 318 318 318 318 317 317 316 315 315 314 314 314 314 315 316 316 316 316 316 316 315 315 315 315 315 315 315 316 316 317 317 318 319 320 322 323 323 323 322 322
316 318 318 317 317 317 317 317 318 318 318 319 319 320 321 321 322 323 322 323 323 323 323 323 324 322 321 323 321 319 321 318 312 311 313 313 314 315 318 319 319 317 317 318 318 318 318 318 317 317 316 316 316 315 315 315 315 314 313 313 313 314 314 314 314 314 314 314 314 314 314 314 314 315 315 315 316 317 318 319 320 320 320 320 319 319
317 318 317 316 315 314 314 315 318 320 321 320 319 320 321 321 321 322 323 323 323 323 323 322 322 323 321 321 321 319 319 319 316 313 311 313 315 316 318 319 319 318 318 319 318 318 318 317 317 317 316 316 316 315 315 315 315 314 314 313 312 312 312 312 312 312 312 312 312 313 313 313 314 313 313 313 313 313 314 315 316 316 316 316 316 315
318 317 317 316 315 315 313 314 319 322 321 320 320 320 321 321 320 322 322 322 322 323 324 322 321 323 322 320 321 320 321 321 318 311 310 314 316 318 318 318 317 318 318 318 318 318 318 317 317 317 316 316 316 315 315 314 314 314 314 314 313 312 312 312 312 312 312 311 311 312 312 312 313 313 312 312 311 311 311 312 312 312 312 313 313 312
317 316 316 316 316 315 315 315 319 321 320 320 321 320 320 321 321 321 321 321 321 322 323 322 322 322 321 320 320 320 319 317 315 314 315 316 317 317 316 315 316 319 318 317 318 318 318 317 317 317 317 316 316 315 314 314 314 313 313 313 313 313 312 312 312 312 312 312 311 311 311 311 311 311 311 311 311 310 311 310 310 310 310 310 310 310
314 316 315 315 316 316 316 316 317 319 319 320 320 320 320 321 321 321 321 320 321 322 321 321 322 321 320 320 320 318 315 313 315 317 316 315 315 315 315 316 317 320 319 317 318 319 318 318 318 317 317 317 316 315 314 314 314 313 313 313 313 313 313 312 312 312 311 311 311 311 311 310 310 310 310 310 310 310 310 310 310 310 309 310 309 309
312 315 315 314 315 315 315 315 316 316 317 318 319 319 319 319 320 320 321 321 321 321 321 321 322 321 320 319 318 317 315 314 314 314 313 314 315 316 317 318 319 320 319 317 318 319 318 317 318 318 317 317 316 315 315 315 314 314 313 314 314 313 313 312 311 311 311 311 311 311 311 311 311 310 310 310 310 310 310 310 310 310 309 309 309 309
311 313 314 314 315 314 314 315 315 315 315 316 317 318 318 318 318 319 320 321 321 321 321 321 321 321 320 319 319 317 316 315 314 312 312 315 317 317 317 318 319 320 320 318 318 319 319 318 318 318 317 316 316 315 316 316 315 315 315 315 315 313 313 312 312 311 311 311 311 311 311 311 311 311 311 310 311 310 310 310 310 310 310 310 310 310
311 313 313 313 314 314 314 314 314 314 315 315 315 315 316 317 317 318 319 319 319 320 321 322 321 320 319 320 320 320 318 317 315 313 314 316 317 317 317 318 319 320 319 319 318 319 319 318 318 318 317 317 316 316 316 316 316 316 315 315 315 313 312 313 312 311 311 311 310 310 310 310 311 311 311 311 311 310 311 311 310 310 311 310 311 310
312 312 312 313 314 315 314 314 314 314 315 317 316 314 315 315 316 317 318 318 319 318 319 319 319 319 320 319 320 319 319 319 317 316 316 316 317 318 318 318 319 319 319 319 319 319 319 318 318 318 317 316 316 316 316 315 315 315 314 313 313 313 313 312 312 311 311 311 311 310 310 310 310 310 310 310 310 311 310 310 310 310 310 310 310 310
312 312 312 313 313 313 314 314 314 315 317 318 316 314 314 314 314 315 316 317 318 318 319 319 319 319 319 318 319 319 319 318 318 317 317 317 317 318 318 319 319 319 319 319 319 319 319 318 318 317 317 317 316 316 316 315 315 314 313 312 312 313 313 312 312 312 311 311 312 311 311 311 311 310 310 310 310 310 310 310 310 310 310 310 310 310
311 312 312 313 313 313 314 314 314 316 316 317 317 316 315 314 315 315 315 315 315 316 318 318 318 318 318 318 318 318 318 318 317 317 317 318 318 318 318 319 319 319 319 319 319 320 319 319 318 317 317 317 317 316 316 316 315 313 312 312 312 312 313 312 312 312 312 312 313 313 313 313 312 312 311 311 310 310 310 310 310 310 310 310 310 310
308 311 312 313 314 313 314 314 314 315 315 316 318 320 316 315 315 315 315 314 313 313 315 316 317 317 317 317 318 318 318 317 317 318 318 318 318 318 318 318 318 319 319 319 320 319 319 319 319 318 317 317 317 317 316 316 315 313 312 312 312 312 312 312 312 312 312 312 312 313 313 313 313 313 313 312 312 311 311 310 310 310 310 310 310 310
306 308 310 312 313 313 314 314 314 315 315 314 317 320 317 313 314 315 315 315 315 314 315 315 317 317 317 317 317 317 317 318 318 318 318 318 318 318 318 319 319 319 319 319 319 319 320 320 319 319 319 319 319 318 316 315 316 314 313 312 312 313 312 312 312 313 313 312 312 312 312 313 313 313 313 313 313 312 311 311 310 310 310 310 310 310
305 306 307 310 312 312 313 314 314 315 315 315 319 320 316 313 314 316 316 316 316 315 315 316 317 317 317 317 317 316 318 319 319 318 317 318 318 318 319 319 319 319 319 319 319 319 319 320 320 320 320 319 320 319 318 317 316 315 315 313 312 312 312 312 312 312 313 313 313 313 313 313 313 313 313 313 312 312 311 310 310 310 310 310 310 310
305 306 307 308 310 311 312 313 314 314 316 319 320 317 313 312 313 316 318 318 316 315 314 316 317 317 317 316 316 317 319 319 318 317 317 317 317 318 318 318 318 319 319 319 319 319 319 319 319 319 319 319 320 320 319 319 317 317 317 315 313 312 312 312 312 312 312 313 313 314 314 314 314 313 313 313 312 311 310 310 309 309 309 309 309 310
306 306 307 307 309 310 311 312 313 314 317 321 318 312 311 314 315 316 318 318 315 314 314 315 316 316 316 315 315 316 317 317 317 317 317 317 317 317 317 318 318 318 318 318 319 318 319 319 319 319 319 319 319 319 319 319 318 317 318 317 315 314 313 313 312 311 312 312 313 315 315 314 314 313 313 312 312 311 311 310 309 309 309 309 309 309
307 307 308 308 308 309 311 312 313 313 315 316 313 309 311 316 318 318 317 314 312 311 312 313 314 314 314 314 314 315 315 315 316 316 316 316 316 316 316 316 316 317 317 317 317 317 317 318 318 318 318 318 319 318 318 318 317 317 317 317 317 317 316 313 312 311 311 312 313 315 314 314 314 313 312 312 312 312 311 311 310 309 309 309 309 309
308 308 308 309 309 310 311 311 312 314 312 311 311 311 313 317 319 316 313 312 311 310 310 312 311 310 310 310 310 311 311 312 312 313 314 314 314 314 314 314 314 314 315 315 316 316 316 316 317 317 317 317 317 318 318 317 317 317 317 317 317 318 317 314 312 311 311 311 313 314 314 314 313 313 313 312 312 312 311 311 310 310 309 309 309 309
309 310 311 311 310 311 311 311 315 318 314 310 312 315 315 315 315 312 312 313 312 310 309 309 308 307 308 308 308 308 309 309 310 311 312 313 313 313 313 312 312 312 312 313 313 314 314 315 315 316 316 316 316 317 317 317 317 317 316 317 317 317 317 315 313 311 311 311 313 314 314 313 313 313 312 312 312 312 311 310 310 310 309 309 309 309
309 310 311 312 313 313 312 312 315 315 311 309 311 313 313 313 313 312 311 310 309 308 308 307 307 307 308 307 308 308 308 309 310 311 311 311 311 312 312 312 312 312 312 312 312 312 312 312 313 314 314 315 315 315 316 316 316 317 317 317 317 317 317 316 314 312 311 311 312 314 314 313 313 313 312 312 312 312 311 310 310 309 309 309 308 309
307 306 306 309 313 313 310 309 310 309 309 310 311 313 313 312 312 311 310 309 308 307 307 307 307 308 308 308 309 308 309 310 310 310 309 309 310 311 311 311 311 312 312 312 312 311 311 310 310 311 312 313 314 314 315 315 315 316 316 317 317 317 317 316 314 313 311 310 312 314 314 313 313 312 312 312 311 311 311 310 309 309 309 308 308 308
306 304 305 308 311 310 310 312 311 307 307 309 310 311 312 311 310 309 308 308 307 307 307 307 308 308 308 309 309 308 309 310 310 309 309 309 310 310 310 311 312 312 312 311 311 310 310 309 309 310 310 311 312 313 314 314 315 315 316 316 316 316 315 314 313 311 310 311 313 314 314 313 313 312 311 311 311 311 310 309 308 308 308 308 308 308
306 304 307 310 310 309 310 311 308 304 305 306 307 308 309 308 308 307 307 307 307 307 307 308 308 308 308 308 308 308 309 310 309 309 309 309 309 309 310 310 311 312 312 311 311 310 310 309 310 310 311 311 312 312 313 313 314 314 315 315 315 315 314 313 311 311 312 313 314 314 313 313 312 311 311 311 311 310 310 309 308 308 308 308 308 308
304 305 308 309 309 309 309 307 305 304 306 306 305 306 306 306 307 307 306 307 307 307 308 308 307 308 308 307 308 308 308 309 309 309 309 309 308 309 309 310 310 311 311 312 311 310 310 310 310 310 311 311 311 311 312 312 313 313 313 314 315 314 314 313 312 313 313 314 314 313 313 312 311 311 310 311 310 310 309 307 307 307 307 307 307 306
303 305 307 307 307 309 308 307 306 307 308 306 304 305 306 306 306 306 306 307 307 307 307 307 307 307 307 307 308 308 308 308 308 308 308 308 308 307 308 309 310 311 311 311 311 311 311 311 310 311 311 311 310 309 311 312 312 312 312 313 313 313 313 313 313 313 313 313 313 313 312 311 310 310 310 310 310 309 308 306 306 305 306 305 305 304
303 306 306 306 307 306 304 304 305 306 306 305 304 304 305 305 306 306 306 306 306 306 306 306 306 306 304 304 305 307 307 307 307 308 308 308 307 307 307 308 310 311 311 311 311 311 310 310 310 311 311 311 309 308 309 310 310 311 312 312 312 313 312 312 312 312 313 312 312 312 311 311 310 310 310 309 309 308 307 306 305 304 304 303 303 303
Wind_Speed
3 3 5 8 9 10 10 10 7 2 3 7 6 5 6 6 5 4 5 3 2 4 5 8 8 12 18 12 10 18 15 14 22 27 31 31 30 31 34 39 42 44 43 38 34 32 31 29 27 26 28 30 30 29 28 30 30 29 28 28 29 28 29 31 32 32 31 32 32 31 32 31 30 28 27 27 27 27 26 24 24 24 24 23 23 22
1 5 8 8 7 7 8 7 5 0 2 5 5 5 5 5 5 5 5 2 2 2 4 5 7 11 16 13 12 15 9 11 23 26 29 32 31 32 36 41 44 43 40 36 33 32 31 30 27 27 28 29 30 29 28 30 30 30 29 30 30 29 30 31 32 33 33 33 33 32 32 31 30 29 29 29 28 28 27 26 26 26 26 26 25 23
2 5 7 6 4 4 5 6 5 3 1 2 3 3 4 3 2 4 4 2 1 3 3 4 5 9 14 14 12 13 11 17 29 31 31 32 31 33 36 39 41 40 39 35 33 32 31 30 29 28 30 30 30 28 28 29 29 29 30 31 31 31 31 31 32 33 34 34 33 32 32 30 30 30 30 29 29 29 29 29 29 29 28 28 26 25
4 5 6 7 7 6 5 6 6 4 2 2 3 3 3 2 2 4 4 3 2 2 2 2 5 7 9 12 12 15 21 25 32 35 34 33 33 38 40 39 40 40 40 37 35 33 31 30 30 31 31 30 29 29 29 29 29 30 31 31 32 33 33 32 32 33 33 33 33 33 32 32 32 32 31 31 31 32 32 33 33 32 31 30 29 27
10 6 3 6 8 7 6 7 8 6 4 4 4 5 4 3 6 6 2 2 2 2 1 2 7 8 7 11 12 13 18 22 28 30 29 33 36 40 41 41 42 41 41 40 38 36 34 32 32 33 34 33 33 32 31 30 29 30 31 31 32 33 34 34 33 33 33 33 34 34 35 36 36 36 36 36 36 36 35 35 35 35 34 33 32 30
13 13 5 1 4 8 8 6 8 7 5 6 6 8 6 5 7 6 1 2 3 4 2 2 5 7 3 8 11 7 6 11 17 18 22 31 34 35 38 41 43 41 41 41 40 39 37 35 34 34 36 37 38 38 36 34 31 31 31 31 32 33 34 34 34 34 34 34 35 36 37 38 39 40 40 40 39 37 37 36 36 36 36 35 35 33
7 14 10 2 4 8 9 6 7 9 6 6 5 7 6 6 6 5 3 1 1 4 3 2 3 7 4 5 8 6 5 8 11 10 17 27 31 31 36 39 39 38 39 40 40 40 39 38 37 37 37 39 40 41 39 38 36 35 33 32 32 33 34 34 35 35 35 36 36 37 38 38 39 41 41 39 37 36 36 35 35 36 36 36 36 36
5 12 12 9 7 5 7 8 8 11 7 4 4 8 8 6 6 4 3 2 2 2 3 1 2 5 8 7 7 8 10 11 10 11 14 24 31 32 34 37 37 35 34 34 35 35 35 35 36 36 37 37 39 39 40 40 39 38 37 35 34 34 34 35 35 36 37 37 38 38 38 38 39 40 40 38 37 36 35 35 35 35 35 36 36 37
8 12 15 15 10 5 7 6 7 12 7 3 4 7 7 6 5 4 4 2 1 3 3 3 1 3 9 7 4 6 12 12 11 13 14 21 31 34 34 38 39 38 37 35 34 32 30 29 29 29 30 32 33 35 37 40 40 40 39 38 37 36 37 37 36 37 38 38 38 38 39 39 39 39 38 37 37 37 37 37 36 36 35 35 35 36
4 13 19 17 11 10 12 5 8 12 5 3 4 5 4 4 4 4 4 3 2 0 7 7 5 4 10 6 3 3 7 10 9 10 11 19 31 34 34 37 39 39 38 37 36 35 33 32 30 29 29 31 32 31 32 34 37 40 41 40 39 39 39 39 39 38 37 38 39 40 40 40 39 39 38 38 38 38 38 38 37 37 36 35 35 35
2 7 15 13 11 12 9 6 9 12 7 5 5 5 5 4 4 3 2 3 2 4 11 11 10 7 9 4 4 4 4 7 8 7 9 18 29 33 34 36 37 36 36 36 36 36 35 33 32 30 29 30 31 31 31 31 32 35 39 41 41 40 40 40 41 41 39 38 39 39 40 40 39 39 39 39 39 39 38 38 38 37 36 36 35 35
1 5 7 8 11 9 7 5 4 8 9 6 4 4 2 1 1 2 1 2 3 7 10 10 10 10 9 5 3 4 5 5 6 7 9 13 22 29 31 31 30 29 30 30 30 30 31 31 29 26 26 26 27 30 32 32 31 32 34 37 40 41 41 42 43 43 42 40 39 39 39 39 39 39 40 39 39 38 38 37 37 37 36 35 34 34
3 4 2 1 8 11 9 4 2 5 7 5 4 5 3 2 2 2 3 3 4 7 7 4 7 8 10 12 10 9 8 7 9 12 13 16 23 30 32 30 28 27 27 26 24 23 23 24 22 20 20 23 25 27 29 30 31 31 32 33 36 39 41 43 44 45 44 42 40 39 38 38 38 39 39 39 39 38 38 37 37 36 35 34 34 33
3 4 3 2 4 12 12 8 5 5 7 9 7 7 6 4 3 4 4 3 3 8 8 3 6 2 7 11 14 14 13 17 21 22 23 26 29 33 35 34 33 32 31 30 29 27 25 24 23 22 22 23 23 23 25 26 27 29 31 32 34 35 37 41 43 44 44 43 40 39 38 37 37 39 39 39 39 38 38 37 37 36 35 34 33 32
6 5 7 7 6 12 14 11 8 5 7 10 6 6 6 4 4 4 3 3 5 6 6 2 5 4 5 4 6 9 12 17 22 21 24 30 34 36 40 40 39 40 40 39 38 38 38 37 37 36 34 30 25 20 20 22 23 26 28 30 32 33 35 39 42 43 44 42 40 38 38 38 38 38 38 37 37 37 38 38 37 37 36 34 33 32
8 5 6 11 10 15 16 13 8 7 4 6 4 5 7 6 4 1 1 3 4 3 4 2 3 5 5 6 9 10 9 12 17 19 22 30 37 38 40 42 43 44 42 38 36 34 34 34 35 36 34 31 25 19 17 18 20 23 26 28 30 31 33 36 39 42 42 41 39 39 38 38 38 38 38 37 36 36 37 37 37 37 36 35 34 33
7 5 5 9 7 14 21 14 11 10 6 3 5 7 6 4 6 1 3 1 1 3 4 3 4 5 5 11 13 12 12 11 12 16 19 27 36 35 34 39 41 38 33 29 26 25 25 26 27 28 28 28 26 21 19 18 18 20 23 26 28 30 31 34 37 39 40 40 40 40 39 38 38 37 36 36 35 34 35 36 36 36 36 36 35 35
5 4 3 8 8 14 20 13 7 8 6 4 6 7 3 3 3 2 2 1 0 4 3 3 9 7 4 8 7 5 12 13 11 14 18 23 29 29 31 37 38 32 28 26 24 22 22 23 23 24 24 26 26 24 22 22 20 20 21 24 26 27 29 31 34 36 37 38 38 39 38 37 36 35 34 34 34 34 36 36 36 36 35 35 35 36
3 2 3 8 10 8 10 9 3 7 4 2 3 5 6 1 2 3 4 2 2 4 3 4 9 8 7 10 8 6 9 11 11 14 15 17 22 26 33 39 38 32 28 26 25 22 20 18 17 19 22 25 26 25 24 22 22 21 21 22 24 25 26 28 30 32 34 36 37 37 37 36 36 35 34 34 34 36 37 36 35 35 34 34 35 36
2 2 4 4 6 5 6 6 6 8 6 2 3 2 3 3 4 5 4 3 3 4 4 5 6 5 7 11 13 12 9 8 10 13 13 17 24 31 36 38 37 34 30 28 25 20 16 14 15 18 21 23 24 24 23 22 22 22 22 22 23 24 25 26 28 30 32 34 35 36 36 36 36 35 35 34 35 37 37 35 35 34 33 34 36 36
1 2 3 2 2 5 3 7 11 13 10 6 4 4 4 3 1 1 2 2 2 4 4 5 7 7 6 6 8 11 10 11 13 13 12 18 28 34 35 34 33 34 32 30 29 26 22 20 21 21 22 24 25 25 24 24 23 23 23 23 24 24 25 26 27 28 29 30 32 33 34 34 35 35 35 36 37 38 37 35 35 34 34 36 36 36
3 2 5 2 2 5 5 7 8 8 9 10 9 8 9 8 4 2 4 2 2 3 4 3 8 11 7 4 7 11 10 10 15 15 13 20 30 36 37 34 30 28 25 22 23 28 28 26 23 23 24 25 26 25 25 24 24 24 24 24 23 23 24 26 26 27 28 29 30 32 33 34 35 36 36 37 38 38 37 36 35 35 36 36 35 35
4 1 3 3 2 5 5 3 2 4 0 7 9 8 8 8 7 7 8 4 3 5 4 2 5 13 10 6 7 9 9 13 21 20 16 23 32 35 38 36 28 22 17 14 16 20 24 25 23 24 25 26 25 24 23 23 23 22 22 23 23 23 23 24 25 26 27 29 31 32 32 33 34 35 36 37 37 37 37 36 36 36 36 35 34 33
4 2 3 4 3 4 5 6 5 5 4 4 7 6 6 8 10 9 6 3 4 5 5 3 5 13 11 6 8 9 11 15 21 22 22 25 30 34 37 36 32 28 22 22 26 27 25 25 25 23 24 24 23 22 21 20 19 19 19 20 22 23 23 23 24 25 27 28 29 30 31 32 33 34 35 36 36 36 36 36 35 35 35 34 32 31
7 3 5 6 5 4 4 4 6 3 2 3 7 10 11 12 13 7 1 2 4 7 10 7 7 12 10 2 4 8 11 11 13 20 23 22 27 34 34 34 36 35 30 29 32 30 25 25 24 21 21 21 20 19 18 17 17 17 18 19 20 22 23 24 25 26 27 28 28 29 30 31 31 32 33 33 34 35 34 34 34 33 33 31 30 29
8 4 7 9 9 9 8 8 8 7 6 4 5 11 15 15 16 11 5 7 9 9 11 9 8 13 14 8 7 8 7 8 10 16 21 21 26 32 31 33 39 38 33 29 25 23 23 23 21 20 19 18 18 17 17 18 18 18 19 19 20 21 22 24 25 26 27 28 30 31 31 30 30 30 30 31 31 31 31 31 31 31 30 29 29 29
3 3 9 10 13 12 12 11 7 4 5 4 4 11 15 15 17 14 9 9 10 9 10 11 11 15 21 22 20 11 5 7 9 11 18 23 27 30 31 36 39 37 32 27 22 22 23 22 21 20 19 19 18 18 18 19 19 20 20 20 20 21 21 22 23 25 26 27 28 30 30 31 31 30 29 29 28 28 29 29 29 29 29 29 29 29
2 5 10 12 16 16 16 15 6 3 7 10 11 15 16 15 17 16 13 13 11 9 11 13 13 16 23 27 25 13 7 8 8 11 18 24 27 30 31 34 35 33 30 27 24 24 23 22 22 21 20 20 19 19 19 19 20 20 20 20 20 21 21 22 23 24 25 26 26 26 27 28 29 29 29 29 29 29 29 29 29 29 29 29 30 30
2 7 11 12 17 18 19 17 6 2 6 8 12 17 17 16 17 18 19 19 15 12 13 14 14 17 22 26 27 16 8 9 11 17 24 25 26 28 27 29 30 29 31 30 26 25 25 23 23 22 21 21 20 20 19 19 19 19 18 19 19 20 21 21 22 22 23 24 25 24 25 25 26 27 28 28 29 30 30 30 29 29 29 30 30 29
3 8 11 12 15 18 21 18 9 7 7 6 10 14 15 18 19 20 21 21 21 19 16 15 16 18 18 24 25 14 6 12 18 22 25 23 23 25 25 26 26 29 36 35 28 27 27 25 24 24 23 23 21 20 18 18 18 18 17 17 19 20 21 21 21 21 22 22 22 22 23 24 24 25 26 27 28 29 29 29 29 29 29 29 28 27
5 8 10 9 11 15 18 17 14 14 13 13 12 10 10 13 15 17 19 18 19 20 19 19 21 17 16 22 21 9 4 13 18 19 21 22 22 23 24 27 28 33 43 43 34 30 28 27 27 27 26 24 21 19 18 17 17 18 18 17 19 20 21 21 21 21 20 20 20 21 22 22 23 24 25 26 26 27 27 27 27 27 27 26 26 25
6 6 6 6 8 11 15 17 17 17 16 17 17 13 10 10 11 13 15 16 18 19 20 21 19 16 17 18 14 9 9 14 14 15 20 22 24 25 27 32 35 39 46 46 38 33 30 30 31 30 29 25 21 20 19 16 17 19 18 17 19 20 20 21 22 21 20 18 18 19 20 21 22 22 23 23 23 23 24 24 24 23 23 23 23 23
7 6 6 6 6 9 15 17 14 12 12 13 15 16 17 17 16 15 15 16 18 17 15 15 14 16 18 13 12 17 19 15 11 14 19 23 27 30 32 37 39 41 45 45 40 34 32 33 34 33 31 27 23 22 20 18 19 19 18 18 19 20 21 21 22 21 20 18 17 17 18 19 19 20 20 20 20 21 21 21 21 21 21 22 21 22
9 9 8 7 5 9 15 11 6 8 9 6 9 17 23 24 22 20 16 15 15 13 12 12 14 16 18 16 16 23 25 19 16 19 22 26 30 33 36 40 40 40 42 41 38 35 34 33 34 33 32 30 27 24 21 22 23 22 21 21 21 22 23 23 22 21 20 18 16 16 16 16 17 17 17 18 19 20 20 20 20 21 21 22 22 22
10 11 8 6 6 9 11 7 6 8 7 6 10 17 22 23 24 22 20 17 16 15 15 17 18 19 22 23 25 30 34 31 25 22 23 26 31 34 38 41 42 41 41 40 38 38 39 37 35 35 35 33 31 27 25 26 26 25 25 26 25 25 26 26 24 22 21 19 17 16 16 16 16 16 17 18 19 19 20 20 21 22 22 23 23 23
8 9 8 8 7 6 7 8 8 5 3 5 8 9 11 15 17 18 20 23 22 19 18 19 20 22 22 25 33 41 40 31 23 23 29 32 33 36 38 40 42 42 42 43 43 43 45 42 40 38 36 34 32 31 30 29 27 29 30 30 29 29 29 29 28 25 24 22 20 19 19 18 18 18 18 19 20 20 21 21 22 23 23 24 24 25
5 5 6 8 8 7 8 10 7 7 7 6 5 4 9 13 15 16 16 19 19 19 18 16 17 21 22 27 40 42 28 17 15 24 41 45 39 36 37 37 39 40 41 44 46 47 49 48 46 44 41 37 35 35 35 32 29 31 34 34 34 33 33 33 32 29 27 25 24 23 23 22 22 21 21 22 22 23 23 24 25 25 25 26 26 26
5 4 3 4 5 7 10 10 8 9 10 10 10 9 12 16 19 17 14 14 13 17 21 20 19 22 21 27 36 27 11 8 9 21 43 46 36 34 36 37 39 41 42 45 47 48 50 50 51 51 49 48 47 43 40 35 31 33 36 38 39 37 37 38 35 32 30 28 28 28 27 26 26 26 26 26 26 26 26 27 28 28 28 28 28 28
5 3 1 2 2 4 8 10 10 8 7 9 10 9 11 16 13 7 7 11 9 13 22 22 18 20 22 26 24 11 3 6 9 18 31 27 20 25 32 35 41 44 46 48 48 48 49 49 50 52 51 52 53 50 46 42 39 39 40 41 42 42 42 41 39 35 32 30 30 30 29 29 30 30 30 31 30 30 30 30 31 31 31 30 29 29
5 3 3 4 4 4 5 5 7 6 4 6 8 6 8 14 12 7 6 9 6 11 20 22 19 23 29 28 16 5 5 10 14 20 23 17 15 21 24 29 37 40 42 46 47 48 50 50 50 52 52 53 53 52 50 49 48 47 44 42 44 46 46 44 41 38 34 31 31 31 31 31 32 32 32 32 31 31 31 31 31 31 31 30 29 28
3 3 4 5 6 6 6 4 3 3 4 6 5 2 6 14 11 5 7 4 1 5 10 16 21 23 24 19 9 9 16 23 28 33 33 28 28 29 28 32 35 35 38 41 42 43 46 47 49 51 52 53 53 53 52 51 50 50 48 45 44 46 46 46 44 41 36 33 32 33 32 32 32 33 32 31 30 30 29 30 30 30 29 28 28 28
4 3 4 5 4 4 4 3 3 3 6 8 5 3 6 8 5 6 4 4 4 4 7 1 7 8 8 9 8 14 21 25 29 33 34 33 35 35 36 38 38 38 40 41 41 42 43 44 46 48 49 50 51 51 51 50 50 50 48 47 47 44 41 43 47 44 38 35 35 34 33 33 33 33 33 31 30 30 29 29 29 28 28 28 27 27
5 4 3 4 4 3 2 3 3 4 6 9 9 5 3 6 3 2 3 1 3 5 8 8 8 10 12 13 14 16 19 22 26 29 31 33 34 35 36 35 35 37 39 39 41 42 43 44 46 48 49 49 48 48 49 49 50 49 48 49 49 44 39 40 47 48 43 40 38 36 35 35 34 35 34 33 31 30 30 29 29 29 29 29 29 28
4 5 3 3 3 4 4 5 6 4 6 14 14 5 8 14 9 1 1 3 7 10 10 11 16 20 18 18 19 19 19 22 26 29 32 34 35 35 34 33 32 33 33 34 36 37 39 43 45 46 48 48 47 48 48 48 48 48 49 49 47 44 40 39 44 50 49 44 40 38 37 36 36 37 37 35 33 32 31 30 31 31 32 31 30 30
5 4 4 3 3 4 5 6 6 2 2 12 17 10 8 15 14 7 7 7 11 15 14 15 21 25 24 22 20 19 21 25 27 29 31 33 34 34 33 32 31 31 31 32 33 33 34 37 39 41 43 43 43 46 47 47 47 48 49 47 44 43 43 40 41 48 52 48 42 39 39 39 39 40 39 37 35 33 32 32 33 33 34 33 32 31
3 3 3 2 2 3 5 9 8 3 3 8 17 15 10 10 13 13 15 16 19 20 20 20 23 26 26 26 25 24 26 27 27 29 31 33 34 34 33 32 32 32 32 34 35 34 34 34 36 38 39 38 38 40 42 44 45 45 44 42 41 43 44 42 42 46 51 50 44 41 41 41 42 42 41 38 36 34 34 34 34 35 35 34 32 31
2 3 3 1 2 2 4 8 7 4 4 7 12 15 14 14 15 17 20 23 25 24 24 24 24 25 26 27 28 30 30 27 26 29 32 34 36 36 34 33 34 34 35 36 37 37 36 36 37 38 38 37 35 36 39 41 42 42 42 41 41 42 42 43 43 45 47 48 45 42 42 42 43 43 41 39 37 36 35 35 35 36 36 34 33 32
1 1 2 3 4 4 6 7 5 4 9 13 14 17 18 19 20 21 22 23 24 24 24 23 23 25 26 28 31 31 31 28 27 30 33 36 38 38 36 36 37 38 38 38 38 39 39 40 40 39 38 37 34 34 38 39 39 39 40 41 42 42 43 43 43 43 44 45 43 42 42 43 43 42 40 39 38 37 36 36 36 37 36 34 33 31
1 1 2 2 2 4 9 8 5 7 13 15 16 17 18 19 20 20 21 21 22 22 22 23 25 27 29 31 32 31 31 32 32 32 34 37 39 39 39 39 41 41 40 39 39 40 41 42 41 38 36 35 33 34 37 38 37 37 39 41 43 43 44 45 44 43 44 43 43 42 42 43 43 41 39 38 37 36 36 36 36 36 35 33 31 29
3 2 3 2 2 6 7 4 4 4 8 9 10 11 12 13 15 17 20 22 23 25 26 26 27 28 30 32 32 31 33 37 37 37 38 38 38 39 40 42 43 44 43 41 40 41 41 42 41 39 36 33 32 35 38 39 38 36 37 40 42 44 46 46 44 43 43 42 42 42 42 42 41 40 38 38 37 36 36 35 34 34 32 30 28 27
7 6 5 4 5 10 10 5 5 4 9 14 18 18 15 14 15 18 22 25 28 31 30 28 29 32 34 36 36 35 38 40 40 40 41 41 40 39 39 41 43 44 44 43 42 42 43 42 40 39 36 32 31 34 38 39 38 36 36 37 40 43 45 44 42 42 42 43 43 42 42 41 40 38 38 37 36 36 36 35 34 33 30 28 27 26
Wind_Direction
178 177 192 203 200 198 197 199 200 89 113 149 152 187 194 203 236 238 253 284 174 192 241 229 226 251 260 260 255 262 260 254 259 261 263 262 261 261 263 265 267 270 274 277 276 273 272 268 259 254 252 252 255 258 257 253 251 250 248 247 245 241 240 239 238 237 236 235 235 236 238 238 238 237 236 234 232 231 232 233 233 236 239 242 243 245
248 217 218 213 206 198 193 189 198 248 123 141 153 189 204 211 237 244 240 305 82 191 268 253 239 253 261 266 259 257 245 237 250 254 258 261 262 262 262 265 268 272 274 275 273 270 269 266 258 252 251 251 254 256 256 253 251 251 250 249 247 244 241 240 240 239 238 238 237 238 239 239 240 240 240 239 238 239 239 239 238 238 240 243 244 245
278 268 249 211 176 171 172 161 179 216 178 168 153 164 219 216 254 282 257 277 125 186 263 275 257 256 263 269 262 251 233 237 250 252 255 259 262 263 262 265 269 272 274 273 270 267 265 264 260 254 252 252 254 254 254 254 253 252 251 251 250 247 243 242 241 240 240 240 241 242 243 244 246 246 246 247 247 247 245 244 243 242 242 244 246 248
216 270 258 195 161 138 141 149 169 197 209 209 176 172 225 159 150 268 272 268 227 194 244 306 292 270 266 277 268 245 238 243 252 255 256 257 259 263 264 266 268 269 271 272 269 266 265 263 260 255 252 251 252 252 251 252 252 251 251 251 250 249 248 245 243 242 242 243 244 246 248 249 250 251 251 250 250 248 247 245 245 245 245 246 249 249
204 222 238 186 165 139 147 168 176 197 221 219 207 205 215 163 186 227 263 314 320 321 346 15 303 277 239 258 265 244 235 242 250 252 256 255 256 262 264 265 265 265 267 269 269 268 267 265 260 256 254 253 253 253 253 252 252 252 252 252 252 252 251 250 248 245 244 244 245 246 247 248 249 250 249 248 247 246 245 245 245 246 248 249 251 251
213 210 204 158 155 152 160 183 184 188 212 229 220 208 198 183 204 219 187 19 354 318 317 82 280 283 222 237 262 261 235 245 251 249 252 257 258 259 261 263 264 265 267 268 269 269 269 267 263 258 255 254 254 254 254 254 254 253 254 254 254 254 253 252 251 249 246 244 245 245 245 245 246 246 247 247 247 247 247 248 248 248 249 250 252 253
214 200 191 165 173 176 176 194 191 176 197 237 206 175 177 184 201 203 157 118 287 270 298 85 219 274 282 242 252 268 269 261 259 253 251 258 262 259 259 264 266 267 269 269 269 269 268 267 265 262 258 256 255 254 254 254 253 253 253 253 254 255 254 254 253 250 248 246 245 245 245 246 247 248 249 249 251 252 253 254 254 252 252 252 253 255
158 180 190 193 197 195 191 203 191 170 185 241 151 148 172 181 186 179 139 174 259 293 311 27 154 271 279 249 223 236 257 260 260 261 258 260 263 262 263 266 268 270 271 272 272 271 269 269 267 265 263 261 260 258 256 254 252 252 252 252 254 255 255 254 253 251 249 248 247 247 247 248 249 250 252 253 255 256 257 258 257 256 256 255 255 255
142 172 192 195 196 213 216 213 171 162 183 238 152 151 174 170 162 144 115 151 337 13 287 258 152 263 274 260 217 229 249 254 250 251 255 258 262 264 265 268 271 271 271 272 273 273 271 272 270 268 269 270 267 263 259 255 253 253 252 253 253 253 254 254 253 252 251 250 249 249 249 250 251 252 254 256 257 257 258 258 258 258 257 257 256 255
155 188 190 187 190 213 218 194 151 167 193 211 140 98 97 107 101 118 127 137 112 242 248 234 173 230 271 262 190 218 247 250 249 246 252 258 261 263 266 269 272 273 273 272 270 270 271 272 272 272 273 272 269 265 261 258 254 252 251 251 250 250 251 252 252 252 252 252 250 249 250 251 252 253 254 256 257 258 258 259 259 259 258 258 258 257
33 172 180 189 201 206 195 155 159 172 162 130 109 70 58 58 56 76 108 113 131 248 250 229 183 198 269 266 171 196 225 221 231 244 255 258 260 263 266 270 273 273 273 273 272 271 271 270 271 271 272 270 266 261 257 256 254 252 251 249 248 247 247 248 250 251 252 253 252 251 251 252 253 254 255 256 257 257 259 259 260 261 261 261 261 260
30 134 165 204 205 175 119 104 148 149 137 118 96 100 97 30 50 63 69 126 192 240 252 230 183 186 240 263 192 236 267 234 221 234 244 253 261 267 270 274 278 277 275 275 275 274 271 267 265 265 270 273 268 260 252 250 251 251 250 249 247 245 244 245 246 249 251 251 252 253 253 254 254 254 255 256 258 258 259 260 262 263 264 264 263 263
204 180 161 157 187 168 135 116 103 119 143 147 128 143 172 213 206 193 193 182 206 242 256 211 160 187 237 256 253 255 271 261 240 237 241 252 264 270 273 274 275 275 274 274 275 274 268 260 254 257 273 281 273 260 251 248 248 249 248 248 247 245 243 244 245 247 249 250 252 254 255 256 257 256 256 257 258 259 260 261 262 263 264 264 264 264
179 229 204 114 189 183 168 161 177 178 177 181 173 176 189 195 210 216 203 180 204 246 260 172 136 212 261 261 255 249 248 246 245 244 246 255 263 269 273 273 272 270 267 268 268 268 264 257 253 258 274 284 277 261 251 248 246 248 248 247 247 246 244 244 245 246 248 250 252 254 256 257 258 257 258 258 259 260 261 262 263 264 264 265 265 266
191 228 192 186 183 174 185 196 184 145 166 192 187 174 193 199 209 218 207 207 212 242 271 146 135 212 232 248 251 245 254 259 259 258 258 263 267 270 273 275 274 272 269 268 268 268 266 263 262 264 267 271 271 260 251 248 246 246 246 245 246 246 245 244 244 245 247 248 250 252 255 257 257 258 259 260 261 260 261 262 262 263 264 265 265 267
204 241 191 191 172 162 192 205 163 117 156 197 145 149 211 207 174 216 279 225 214 248 267 195 193 230 240 287 279 258 274 285 277 271 265 266 268 267 269 270 271 273 273 275 275 274 271 267 266 265 260 254 255 256 251 250 248 245 244 243 244 245 246 246 245 244 245 247 248 250 253 256 257 258 259 259 260 261 261 262 263 264 264 265 267 268
197 234 193 183 171 181 197 193 166 169 172 166 166 184 212 175 133 157 273 338 70 251 243 202 245 277 293 287 273 249 248 259 269 268 256 255 261 262 262 265 268 270 272 277 279 277 276 272 266 261 248 238 243 251 251 255 257 253 248 244 244 244 245 245 245 245 245 246 248 250 252 255 257 258 259 260 261 262 263 263 264 265 266 267 268 270
187 232 206 174 192 206 196 179 185 200 152 113 195 188 110 62 92 139 231 333 71 240 255 229 241 253 258 272 288 253 235 232 236 251 251 250 257 262 263 264 265 265 268 275 276 272 272 270 261 249 235 231 240 249 254 260 262 259 253 247 244 243 243 244 245 245 245 245 247 250 252 254 256 258 260 261 263 263 263 263 263 265 266 267 269 269
174 244 270 193 195 193 160 148 228 248 197 130 220 161 115 154 195 159 197 222 216 236 269 247 240 238 229 244 266 257 228 224 229 243 255 259 259 262 263 265 265 263 264 268 268 265 266 264 254 242 233 233 243 254 260 262 258 253 252 249 245 242 241 244 245 245 244 244 247 250 252 254 256 258 260 261 262 261 261 262 263 264 266 267 267 267
143 194 275 234 191 153 126 156 202 223 213 240 273 162 140 216 195 174 202 203 205 235 253 256 246 237 231 235 246 247 223 208 227 238 249 254 253 255 258 262 264 264 261 258 260 258 257 263 260 251 247 247 251 259 259 254 250 248 249 249 247 242 239 240 241 241 242 244 247 250 253 255 256 257 259 259 260 260 260 262 263 264 265 265 266 267
97 195 244 321 147 155 174 201 201 202 195 193 216 185 170 207 150 176 229 152 164 227 239 263 260 253 245 220 225 236 219 202 216 228 237 247 252 257 260 263 268 271 268 263 259 253 255 274 271 254 253 255 254 256 254 249 248 247 247 247 247 243 239 236 236 239 241 244 248 250 251 253 254 255 256 257 258 259 259 260 260 261 262 263 265 266
185 201 206 195 158 185 214 214 209 214 198 190 203 197 191 192 166 210 230 159 135 215 197 221 259 264 257 185 198 221 214 205 218 225 235 246 251 258 264 269 274 277 278 275 265 254 258 273 266 247 250 254 252 254 252 249 248 248 249 248 246 245 240 236 235 236 239 242 245 247 248 250 253 254 255 256 256 257 257 257 257 259 261 262 264 266
163 122 208 230 229 220 240 254 355 11 316 215 218 207 202 197 180 205 220 194 177 207 193 166 264 271 258 191 198 222 213 214 222 224 234 245 250 258 265 270 273 272 272 274 273 267 266 266 252 241 248 254 254 253 249 247 249 251 253 249 245 244 241 238 236 236 238 241 243 246 248 251 253 253 254 254 254 254 254 254 255 258 260 262 264 266
150 91 207 238 263 251 274 301 324 16 40 250 236 211 204 203 200 211 216 189 178 192 198 193 247 267 261 195 190 218 221 226 229 227 232 242 250 255 261 268 270 268 265 264 270 278 276 262 248 243 249 254 254 250 247 249 253 254 254 249 245 243 242 241 241 240 241 243 246 248 250 251 252 252 252 251 251 252 252 253 254 256 259 262 263 265
176 172 195 221 245 243 253 270 265 251 168 221 230 215 212 207 207 220 226 207 221 198 197 206 233 255 261 189 171 215 226 238 240 235 237 244 252 256 259 265 267 269 272 271 270 272 267 255 249 248 251 251 249 248 248 252 254 255 254 252 248 246 245 246 247 248 249 250 251 252 251 252 252 252 252 252 251 252 252 254 256 258 260 261 262 263
180 187 191 208 221 223 224 219 222 225 211 215 229 220 219 210 203 211 215 218 227 209 199 208 230 250 265 274 255 231 228 255 258 249 248 247 250 255 259 262 265 269 275 276 269 260 252 248 248 248 247 245 244 248 251 252 254 256 257 257 256 254 252 252 252 253 254 254 253 253 253 253 253 254 254 254 254 254 255 256 257 258 259 259 259 260
156 211 200 213 223 224 232 230 214 189 185 187 210 218 222 216 208 213 220 218 223 223 220 217 223 248 264 264 257 242 210 245 258 254 253 250 247 250 254 259 265 269 272 271 264 254 249 246 247 245 241 240 244 247 250 251 254 256 260 263 265 266 263 260 258 256 256 255 255 254 254 254 254 255 256 256 256 255 254 254 254 254 255 255 255 255
112 227 211 222 231 233 242 243 227 175 202 200 205 215 219 216 212 217 224 224 219 224 235 225 213 236 255 258 258 249 208 222 244 245 248 250 246 246 253 261 266 269 272 271 265 258 251 245 245 244 241 242 246 248 248 250 252 255 259 264 268 271 271 268 265 262 259 258 257 256 256 255 255 256 256 255 255 253 252 251 251 251 251 251 252 253
171 228 217 225 235 239 245 245 235 209 222 207 207 216 216 212 212 216 224 227 222 224 236 232 217 227 248 258 261 257 215 203 226 239 243 246 247 251 261 269 269 271 276 277 269 258 249 243 242 242 242 245 245 245 245 246 249 252 256 262 268 271 272 270 269 267 264 262 261 259 258 257 256 255 255 255 254 252 251 250 249 249 249 250 251 252
184 224 224 227 238 244 244 242 233 226 237 232 221 220 217 214 214 218 224 228 230 235 242 246 243 238 244 258 264 268 231 218 231 241 244 245 251 258 266 269 269 272 274 273 269 260 250 242 242 242 242 243 240 239 241 242 245 248 251 258 265 269 271 271 268 266 264 262 261 259 258 256 255 254 253 253 252 251 251 249 248 248 248 249 250 251
180 220 226 223 239 249 248 246 239 231 236 240 235 230 227 226 223 223 225 226 231 239 239 243 252 251 247 254 264 282 239 228 235 241 242 245 252 258 262 262 262 267 268 267 267 264 254 242 242 244 241 240 238 236 237 241 245 248 249 254 261 266 271 272 270 267 263 260 257 255 254 252 251 250 249 249 250 249 249 248 247 247 247 247 247 246
178 222 232 220 237 246 242 242 239 236 240 242 239 237 235 237 233 226 224 220 221 227 230 234 243 248 248 255 275 294 253 233 236 238 239 245 251 254 256 256 255 259 264 266 267 267 259 246 242 243 241 239 237 234 235 240 246 249 250 256 260 261 263 267 268 267 263 259 255 252 251 250 249 248 248 248 248 247 246 245 243 243 242 241 241 241
187 211 222 214 229 244 241 240 238 238 242 241 234 227 226 231 231 227 225 222 220 221 224 228 234 244 253 266 286 279 261 247 246 243 240 243 248 251 252 253 254 257 262 267 269 269 262 249 242 245 244 240 238 238 239 242 248 252 254 256 256 256 257 259 259 260 258 255 253 251 250 250 249 248 247 246 245 243 241 239 237 236 236 236 237 239
198 209 218 214 220 245 243 237 224 232 240 233 214 213 218 225 230 233 235 229 223 224 228 237 243 250 259 260 258 261 262 263 262 255 249 247 247 250 252 254 257 259 262 268 270 271 267 255 245 246 247 244 242 243 244 244 249 253 251 247 248 252 255 252 249 250 249 247 247 248 249 250 248 247 245 242 241 239 236 235 234 233 234 235 236 238
202 210 215 217 223 244 245 230 216 229 222 202 214 215 213 218 226 234 241 236 225 220 223 233 239 243 248 251 252 258 264 267 267 262 258 254 250 249 252 255 258 259 262 268 269 271 271 263 251 248 248 248 248 247 246 247 249 251 246 242 243 248 250 249 245 242 240 240 242 244 247 250 249 248 246 243 241 239 236 235 234 234 234 235 237 238
200 209 215 218 218 236 242 224 226 259 255 225 243 231 202 208 221 229 239 238 228 219 219 225 232 240 247 252 253 255 260 268 275 271 264 259 254 251 251 255 259 260 262 266 266 267 269 266 260 255 255 255 254 251 250 250 250 249 245 241 241 243 246 245 242 239 236 236 240 244 247 249 249 249 249 248 245 243 240 238 237 237 237 237 239 240
179 201 219 217 210 219 236 233 242 282 284 265 267 229 184 192 203 209 229 239 228 221 224 225 232 243 247 250 251 253 260 279 286 271 264 260 256 255 256 258 261 263 264 264 263 262 264 266 266 266 266 266 264 258 253 251 250 250 246 242 240 242 243 241 239 239 239 238 241 247 250 251 251 250 250 251 250 248 246 244 243 242 241 241 241 242
175 194 213 213 205 210 228 239 246 254 254 246 236 223 206 207 207 204 221 241 229 216 217 216 224 234 238 247 252 252 261 282 274 268 268 265 258 256 258 258 259 260 260 260 259 259 260 262 265 268 270 270 269 265 258 251 250 251 249 245 243 243 243 240 238 239 241 243 247 252 254 254 254 253 252 251 251 249 248 247 246 245 245 245 244 245
173 180 201 223 222 210 219 231 233 236 252 247 238 234 215 205 192 168 210 239 239 217 212 211 220 229 233 245 250 240 214 255 257 268 274 276 267 257 257 258 258 257 256 257 258 258 260 262 264 266 267 267 267 267 263 258 256 255 254 250 246 244 243 241 240 240 241 246 252 255 257 257 255 254 252 251 250 249 248 247 247 248 248 248 248 249
180 177 199 214 222 217 215 231 236 240 261 253 253 263 207 170 134 110 210 234 244 218 207 205 212 225 235 244 243 193 198 234 247 261 271 280 281 270 265 264 263 261 260 261 261 262 263 264 265 265 266 266 267 267 267 265 263 261 261 257 249 245 244 244 243 242 242 246 252 255 257 258 256 254 253 252 252 251 251 251 250 250 251 252 252 252
192 187 197 212 227 222 213 234 262 265 262 250 259 269 161 141 128 179 221 206 186 203 201 208 216 225 241 250 237 218 237 245 254 266 273 279 282 281 277 274 272 270 269 270 269 269 269 268 268 267 268 269 269 269 267 266 264 263 264 261 253 249 249 247 245 243 242 246 250 253 255 256 256 255 254 254 254 254 254 254 253 252 253 252 252 251
180 178 189 202 222 222 211 229 263 272 250 228 204 162 163 157 176 225 208 91 82 76 57 22 240 251 284 289 262 252 263 271 276 282 288 291 291 291 287 285 284 281 278 277 276 275 274 272 271 270 269 270 270 270 268 266 264 263 264 262 259 258 255 249 244 242 243 246 250 251 252 253 253 253 253 254 255 255 255 254 253 251 249 248 247 246
169 165 191 200 192 180 185 204 224 263 238 186 149 113 189 204 206 192 169 52 349 9 25 8 332 324 317 304 296 292 297 302 301 301 303 302 302 301 300 300 298 294 291 288 283 279 276 273 272 271 271 271 272 272 270 267 265 264 263 262 263 264 261 250 244 242 242 245 248 249 250 250 250 250 251 253 256 257 256 254 252 249 246 243 241 239
181 174 190 205 181 162 181 206 213 231 202 174 167 181 214 205 200 129 128 274 316 332 343 336 324 320 313 305 305 309 309 310 310 311 310 309 309 309 310 310 307 305 305 303 297 292 284 278 276 276 275 274 272 271 270 268 266 266 265 264 265 265 262 253 245 242 242 243 246 247 247 246 247 248 249 251 255 258 257 253 250 246 243 240 236 234
209 189 173 191 210 189 196 219 223 229 184 185 193 210 215 206 219 271 312 305 309 316 319 317 316 318 318 313 310 311 311 313 316 316 314 314 313 312 314 315 314 312 311 310 310 307 299 291 288 286 284 281 276 271 269 267 266 266 265 266 265 264 261 256 248 243 242 242 245 247 246 244 244 246 247 249 253 256 256 253 247 243 240 237 233 231
241 200 153 156 264 261 251 249 241 253 304 230 218 228 247 242 250 280 302 305 306 308 309 309 311 314 316 314 311 310 311 315 317 318 319 320 318 316 317 319 320 320 317 314 314 314 309 303 297 291 288 286 282 277 272 267 264 263 263 264 263 261 258 255 250 245 241 240 244 246 244 242 243 244 245 247 251 254 254 251 245 240 238 235 231 229
281 206 183 205 251 244 257 259 238 211 245 246 233 239 256 269 277 286 293 294 297 301 303 304 306 308 310 312 312 310 311 314 315 317 320 321 319 318 320 322 323 323 320 317 317 317 314 309 303 297 292 287 285 282 278 272 267 263 262 261 259 257 255 251 247 242 239 240 244 245 243 242 243 243 243 246 250 252 251 247 242 237 236 233 230 227
276 158 190 218 214 214 250 263 261 261 263 259 256 259 266 273 279 282 287 290 293 297 300 304 309 310 310 313 314 312 311 311 312 315 318 319 318 319 321 324 325 324 320 319 318 317 316 313 310 304 296 289 285 281 277 275 271 266 262 260 257 255 252 248 244 240 240 242 244 243 242 242 242 241 241 244 248 251 249 244 238 235 233 233 231 228
268 333 206 203 226 266 274 271 269 287 281 267 256 258 265 273 280 285 289 291 293 297 302 307 309 309 310 311 312 312 311 312 314 315 314 314 317 319 321 324 325 324 322 319 317 316 316 316 315 310 301 292 283 275 272 272 270 265 260 257 255 253 251 247 244 242 243 243 243 241 240 240 239 238 239 244 247 247 245 240 236 233 231 229 228 227
235 238 196 178 264 262 258 228 178 236 274 264 251 257 269 278 284 286 286 289 293 296 301 305 305 306 307 308 310 310 310 311 313 313 310 311 314 318 321 323 323 323 322 320 316 314 314 317 318 314 306 295 281 271 268 268 266 263 258 255 253 251 250 248 245 243 243 242 241 240 239 238 237 236 239 243 244 242 239 234 230 229 227 227 227 226
203 208 189 190 238 253 251 219 174 224 266 269 271 277 282 282 281 279 282 287 290 292 297 303 305 304 304 304 305 306 306 307 310 310 308 308 310 313 316 319 321 323 323 321 317 313 313 315 317 314 309 299 285 274 269 267 265 263 259 255 253 251 249 248 245 244 243 242 241 239 238 237 237 238 239 240 239 238 235 230 225 222 221 222 224 224